Creek Data

    Home     View Charts     View Raw Data     Messages

ID Distance Battery Voltage Battery Current Internal Temp Internal Humidity External Temp Solar Input rssi snr Time Stamp Record
36457 0.0 3.94 -5 53 40 53 0 -84 8 03/31/2025 04:31 AM 18311
36456 0.0 4.01 -5 53 41 54 0 -78 8 03/31/2025 04:15 AM 18310
36455 0.0 3.95 -5 53 41 54 0.1 -80 7 03/31/2025 04:00 AM 18309
36454 0.0 3.95 -5 53 41 54 0 -79 7 03/31/2025 03:45 AM 18308
36453 0.0 3.95 -5 54 41 54 0.1 -77 8 03/31/2025 03:31 AM 18307
36452 0.0 4.02 -5 54 40 55 0 -78 8 03/31/2025 03:15 AM 18306
36451 0.0 3.95 -5 55 40 55 0 -78 8 03/31/2025 03:00 AM 18305
36450 0.0 4.02 -5 55 40 56 0 -79 8 03/31/2025 02:45 AM 18304
36449 0.0 4.02 -5 55 40 56 0 -79 7 03/31/2025 02:30 AM 18303
36448 15.0 3.95 -5 55 40 56 0.1 -78 7 03/31/2025 02:15 AM 18302
36447 0.0 3.95 -5 54 39 55 0 -79 7 03/31/2025 02:00 AM 18301
36446 0.0 3.95 -5 54 40 55 0 -81 8 03/31/2025 01:45 AM 18300
36445 0.0 4.02 -5 53 39 54 0 -77 7 03/31/2025 01:30 AM 18299
36444 0.0 3.96 -5 53 39 55 0 -80 8 03/31/2025 01:15 AM 18298
36443 0.0 3.96 -5 52 40 54 0 -80 8 03/31/2025 01:01 AM 18297
36442 0.0 4.03 -5 51 40 53 0 -77 8 03/31/2025 12:45 AM 18296
36441 0.0 3.96 -5 51 41 52 0 -76 8 03/31/2025 12:30 AM 18295
36440 0.0 3.96 -5 51 41 52 0.1 -77 8 03/31/2025 12:15 AM 18294
36439 0.0 4.03 -5 52 40 53 0.1 -77 7 03/31/2025 12:01 AM 18293
36438 15.1 3.96 -5 52 41 53 0 -77 8 03/30/2025 11:45 PM 18292
36437 15.0 3.96 -5 52 41 53 0 -79 8 03/30/2025 11:30 PM 18291
36436 15.1 4.03 -5 52 41 53 0.1 -77 8 03/30/2025 11:15 PM 18290
36435 15.0 3.97 -5 52 41 53 0 -78 6 03/30/2025 11:00 PM 18289
36434 15.0 4.03 -26 53 41 54 0 -77 8 03/30/2025 10:45 PM 18288
36433 15.1 3.97 -5 53 41 54 0 -77 8 03/30/2025 10:15 PM 18286